Weather History for St. Johns, AZ

Change the Weather History Date:

Monday, May 6, 2013

  Actual Average (KSOW) Record (KSOW)
Temperature  
Mean Temperature 49 °F -  
Max Temperature 64 °F 68 °F 85 °F (1989)
Min Temperature 34 °F 49 °F 24 °F (1967)
Degree Days  
Heating Degree Days 16    
Moisture  
Dew Point 34 °F    
Average Humidity 50    
Maximum Humidity 86    
Minimum Humidity 23    
Precipitation  
Precipitation 0.08 in - - ()
Sea Level Pressure  
Sea Level Pressure 29.87 in    
Wind  
Wind Speed 11 mph (SW)    
Max Wind Speed 20 mph    
Max Gust Speed 28 mph    
Visibility 10 miles    
Events Rain    
Averages and records for this station are not official NWS values.
T = Trace of Precipitation, MM = Missing Value Source: NWS Daily Summary

Daily Weather History Graph

Daily Weather History Graph

Search for Another Location

Airport:

Trip Planner

Search our weather history database for the weather conditions in past years. The results will help you decide how hot, cold, wet, or windy it might be!

Date:

Astronomy

May. 06, 2013 Rise Set
Actual Time 5:22 AM MST 7:06 PM MST
Civil Twilight 4:55 AM MST 7:33 PM MST
Nautical Twilight 4:22 AM MST 8:06 PM MST
Astronomical Twilight 3:47 AM MST 8:41 PM MST
Moon 3:18 AM MST (5/6) 4:16 PM MST (5/6)
Length of Visible Light 14h 38m
Length of Day
13h 44m
Waning Crescent, 10% of the Moon is Illuminated
May 6
Waning Crescent
May 9
New
May 17
First Quarter
May 24
Full
May 31
Last Quarter

Hourly Weather History & Observations

Time (MST) Temp. Windchill Dew Point Humidity Pressure Visibility Wind Dir Wind Speed Gust Speed Precip Events Conditions
12:54 AM 57.9 °F - 19.9 °F 23% 29.74 in 10.0 mi SW 13.8 mph - N/A   Mostly Cloudy
1:54 AM 55.9 °F - 28.9 °F 36% 29.78 in 10.0 mi SW 17.3 mph 27.6 mph N/A   Overcast
2:54 AM 52.0 °F - 34.0 °F 50% 29.82 in 10.0 mi SW 13.8 mph - 0.00 in   Overcast
3:54 AM 46.9 °F - 39.0 °F 74% 29.84 in 10.0 mi WSW 16.1 mph - 0.00 in Rain Light Rain
4:54 AM 45.0 °F 39.7 °F 39.0 °F 80% 29.87 in 10.0 mi WSW 10.4 mph - 0.02 in Rain Light Rain
5:54 AM 45.0 °F 42.6 °F 39.9 °F 82% 29.90 in 5.0 mi NW 4.6 mph - 0.06 in Rain Rain
6:54 AM 45.0 °F 42.6 °F 41.0 °F 86% 29.91 in 10.0 mi NE 4.6 mph - 0.02 in   Overcast
7:54 AM 46.9 °F - 41.0 °F 80% 29.92 in 10.0 mi ESE 3.5 mph - N/A   Scattered Clouds
8:54 AM 51.1 °F - 43.0 °F 74% 29.91 in 10.0 mi Calm Calm - N/A   Clear
9:54 AM 55.0 °F - 39.0 °F 55% 29.89 in 10.0 mi SE 3.5 mph - N/A   Clear
10:54 AM 57.9 °F - 36.0 °F 44% 29.88 in 10.0 mi WSW 4.6 mph - N/A   Overcast
11:54 AM 60.1 °F - 37.0 °F 42% 29.87 in 10.0 mi Variable 4.6 mph - N/A   Overcast
12:54 PM 63.0 °F - 32.0 °F 31% 29.85 in 10.0 mi SW 15.0 mph 21.9 mph N/A   Overcast
1:54 PM 66.0 °F - 33.1 °F 29% 29.83 in 10.0 mi West 18.4 mph 25.3 mph N/A   Mostly Cloudy
2:54 PM 64.9 °F - 30.0 °F 27% 29.83 in 10.0 mi WSW 15.0 mph 25.3 mph N/A   Mostly Cloudy
3:54 PM 66.9 °F - 30.0 °F 25% 29.84 in 10.0 mi SW 19.6 mph 26.5 mph N/A   Mostly Cloudy
4:54 PM 64.9 °F - 28.9 °F 26% 29.85 in 10.0 mi SSW 19.6 mph 24.2 mph N/A   Mostly Cloudy
5:54 PM 64.0 °F - 32.0 °F 30% 29.86 in 10.0 mi SW 17.3 mph 25.3 mph N/A   Clear
6:54 PM 61.0 °F - 32.0 °F 34% 29.88 in 10.0 mi SW 15.0 mph 23.0 mph N/A   Scattered Clouds
7:54 PM 55.9 °F - 33.1 °F 42% 29.91 in 10.0 mi SW 6.9 mph - N/A   Clear
8:54 PM 53.1 °F - 33.1 °F 47% 29.93 in 10.0 mi SSW 8.1 mph - N/A   Clear
9:54 PM 51.1 °F - 33.1 °F 50% 29.93 in 10.0 mi South 5.8 mph - N/A   Clear
10:54 PM 48.0 °F - 32.0 °F 54% 29.93 in 10.0 mi South 8.1 mph - N/A   Clear
11:54 PM 48.0 °F - 32.0 °F 54% 29.93 in 10.0 mi South 9.2 mph - N/A   Clear